[[{"header":{"parameterUnit":"m.s-1","parameterCategory":1,"la1":30.2991,"la2":30.254,"lo1":-89.0895,"lo2":-89.0444,"dx":0.0017,"dy":0.0017,"nx":28,"ny":28,"refTime":"2023-01-13T09:00:00:Z","depth":0,"parameterNumber":2,"parameterNumberName":"U-component_of_WINDS"},"data":[0,0,0,0,0,0,0,0,0,0,0,0,0,0,0,0,0,0,0,0,0,0,0,0,0,0,0,0,0,0,0,0,0,0,0,0,0,0,0,0,0,0,0,0,0,0,0,0,0,0,0,0,0,0,0,0,0,0,-1.3198,-1.3199,0,-1.3254,-1.3255,-1.3256,-1.3205,-1.3203,-1.3201,-1.3199,-1.3258,-1.3261,-1.3265,0,0,0,0,0,0,0,0,0,0,0,0,0,-1.3047,-1.305,-1.3198,-1.3199,-1.32,-1.3254,-1.3255,-1.3256,-1.3206,-1.3203,-1.3201,-1.3198,-1.3257,-1.3261,-1.3265,0,0,0,0,0,0,0,0,0,0,0,0,0,-1.3109,-1.3051,-1.3198,-1.3181,-1.318,-1.3254,-1.3255,-1.3256,-1.3206,-1.3203,-1.32,-1.3197,-1.3255,-1.326,-1.3266,-1.3359,0,0,-1.3281,-1.3284,0,0,0,0,0,0,0,0,-1.3105,-1.3114,-1.3183,-1.3183,-1.3182,-1.322,-1.3223,-1.3291,-1.3207,-1.3197,-1.3199,-1.3196,-1.3248,-1.3253,-1.3271,-1.3362,-1.3365,-1.3282,-1.3285,-1.3287,-1.3289,0,0,0,0,0,0,0,-1.3101,-1.3112,-1.322,-1.3184,-1.3183,-1.3171,-1.3176,-1.3236,-1.3239,-1.3197,-1.3194,-1.3201,-1.3247,-1.3266,-1.3272,-1.3365,-1.3282,-1.3286,-1.329,-1.3292,-1.3533,-1.3536,0,0,0,0,0,0,-1.3099,-1.3108,-1.3219,-1.3222,-1.3135,-1.3176,-1.3182,-1.3211,-1.3238,-1.3239,-1.3204,-1.3198,-1.3258,-1.3266,-1.3274,-1.3383,-1.3287,-1.3292,-1.3295,-1.353,-1.3534,-1.3538,0,0,0,0,0,0,-1.3095,-1.3109,-1.3216,-1.3164,-1.3177,-1.3182,-1.3214,-1.3213,-1.3232,-1.3243,-1.3243,-1.3222,-1.3256,-1.3266,-1.3338,-1.3384,-1.3294,-1.3299,-1.3526,-1.3531,-1.3536,-1.3604,0,0,0,0,0,0,-1.3091,-1.3108,-1.3144,-1.3166,-1.318,-1.328,-1.3217,-1.3217,-1.3241,-1.3235,-1.3261,-1.3262,-1.3255,-1.333,-1.3343,-1.339,-1.3303,-1.3522,-1.3528,-1.3534,-1.3597,-1.361,-1.3621,0,0,0,0,0,-1.3086,-1.3162,-1.3146,-1.316,-1.3225,-1.3283,-1.3291,-1.3281,-1.3245,-1.3281,-1.3287,-1.3261,-1.3377,-1.3338,-1.3352,-1.3401,-1.3519,-1.3527,-1.3534,-1.3592,-1.3608,-1.3621,0,0,0,0,0,0,-1.3147,-1.3164,-1.3147,-1.3232,-1.3256,-1.3274,-1.3319,-1.3299,-1.3334,-1.3327,-1.3313,-1.3319,-1.3394,-1.3405,-1.336,-1.3492,-1.3442,-1.3453,-1.3482,-1.3497,-1.3509,-1.3504,-1.3308,0,0,0,0,0,-1.317,-1.3215,-1.3228,-1.3302,-1.3315,-1.3315,-1.334,-1.333,-1.3354,-1.3364,-1.3376,-1.3401,-1.3442,-1.3471,-1.351,-1.3599,-1.3602,-1.3639,-1.3651,-1.3661,-1.367,-1.3715,-1.3731,-1.3562,-1.3562,-1.3562,0,0,-1.3218,-1.3234,-1.3263,-1.3314,-1.3332,-1.3378,-1.3324,-1.3376,-1.341,-1.3373,-1.344,-1.3449,-1.3476,-1.3556,-1.3591,-1.3567,-1.3718,-1.3671,-1.3679,-1.3682,-1.3725,-1.3741,-1.3755,-1.3567,-1.3566,-1.3565,0,0,-1.333,-1.3347,-1.3409,-1.3427,-1.3454,-1.3453,-1.3468,-1.3489,-1.3493,-1.356,-1.3532,-1.3572,-1.3645,-1.3664,-1.3684,-1.3801,-1.3777,-1.3814,-1.3877,-1.3921,-1.3934,-1.3946,-1.3985,-1.4,-1.3823,-1.3823,-1.3823,0,-1.3387,-1.3456,-1.3443,-1.3497,-1.3519,-1.3486,-1.3548,-1.3566,-1.3605,-1.3621,-1.3593,-1.3682,-1.3698,-1.378,-1.3808,-1.3826,-1.3841,-1.381,-1.3933,-1.3945,-1.3956,-1.3993,-1.4008,-1.3827,-1.3827,-1.3826,-1.3826,0,-1.3523,-1.3572,-1.3618,-1.3655,-1.3683,-1.374,-1.3736,-1.3765,-1.3752,-1.3754,-1.3822,-1.384,-1.3881,-1.39,-1.3889,-1.398,-1.3964,-1.3935,-1.3885,-1.3976,-1.4011,-1.4025,-1.3833,-1.3832,-1.3831,-1.383,0,0,-1.3675,-1.3702,-1.372,-1.3734,-1.3761,-1.3797,-1.3853,-1.3892,-1.3917,-1.3944,-1.3989,-1.4051,-1.4023,-1.4045,-1.4036,-1.4075,-1.4163,-1.4041,-1.4041,-1.4061,-1.4262,-1.4282,-1.4299,-1.4148,-1.415,-1.4152,-1.4259,0,-1.3786,-1.3881,-1.3871,-1.3961,-1.4004,-1.3973,-1.4021,-1.4041,-1.4044,-1.4081,-1.4085,-1.4127,-1.4089,-1.4102,-1.4139,-1.4144,-1.4203,-1.4137,-1.4188,-1.419,-1.418,-1.4318,-1.434,-1.4439,-1.4273,-1.4275,-1.4277,0,-1.3928,-1.3959,-1.4053,-1.407,-1.4088,-1.4131,-1.4165,-1.4201,-1.4223,-1.4222,-1.4246,-1.4229,-1.4283,-1.4233,-1.4307,-1.4262,-1.4282,-1.4288,-1.4291,-1.4294,-1.4238,-1.4322,-1.4471,-1.4485,-1.4298,-1.4297,-1.4295,0,-1.4026,-1.4091,-1.4156,-1.417,-1.4192,-1.4223,-1.4233,-1.4253,-1.4276,-1.4306,-1.432,-1.4357,-1.4376,-1.4404,-1.4397,-1.4361,-1.4471,-1.4421,-1.4471,-1.4471,-1.4494,-1.4493,-1.4646,-1.4511,-1.4511,-1.451,-1.451,0,-1.415,-1.4208,-1.42,-1.4239,-1.4303,-1.429,-1.4354,-1.4361,-1.4378,-1.4417,-1.4393,-1.443,-1.4419,-1.4456,-1.4451,-1.4511,-1.4521,-1.4521,-1.4518,-1.4522,-1.4522,-1.4534,-1.4526,-1.4514,-1.4514,-1.4513,-1.4512,0,-1.427,-1.4267,-1.4334,-1.4349,-1.4354,-1.44,-1.4413,-1.4449,-1.445,-1.45,-1.4511,-1.4512,-1.4554,-1.4549,-1.4597,-1.4593,-1.4667,-1.4658,-1.4659,-1.4656,-1.4706,-1.47,-1.4871,-1.4892,-1.4745,-1.4747,-1.4748,0,-1.4348,-1.4392,-1.4411,-1.4435,-1.4447,-1.4488,-1.4511,-1.4499,-1.4524,-1.4552,-1.4585,-1.4624,-1.4655,-1.4723,-1.4727,-1.4763,-1.4753,-1.481,-1.4758,-1.4759,-1.4751,-1.4747,-1.475,-1.482,-1.4822,-1.4823,-1.4824,0,-1.4486,-1.4482,-1.4516,-1.4549,-1.4578,-1.4604,-1.4627,-1.4648,-1.4639,-1.4668,-1.471,-1.4734,-1.4781,-1.482,-1.4853,-1.4863,-1.4842,-1.4841,-1.4853,-1.4857,-1.4855,-1.4854,-1.4685,-1.4836,-1.4835,-1.4834,-1.4834,-1.4833,-1.4586,-1.4623,-1.4641,-1.4679,-1.4695,-1.4717,-1.4751,-1.4756,-1.479,-1.4827,-1.4818,-1.4865,-1.4884,-1.4926,-1.494,-1.4976,-1.4955,-1.4974,-1.4979,-1.4983,-1.4988,-1.4851,-1.4982,-1.4982,-1.4981,-1.4981,-1.4981,0,-1.4721,-1.4731,-1.4766,-1.4799,-1.4828,-1.4805,-1.4829,-1.4856,-1.4897,-1.4916,-1.4946,-1.4993,-1.503,-1.5037,-1.5072,-1.5099,-1.509,-1.5109,-1.5106,-1.5108,-1.5006,-1.499,-1.5115,-1.5115,-1.5115,-1.5115,-1.5115,-1.5115,-1.4794,-1.4854,-1.4852,-1.4919,-1.4928,-1.4973,-1.4988,-1.5008,-1.5023,-1.5076,-1.5106,-1.511,-1.5124,-1.5159,-1.5192,-1.5193,-1.5206,-1.5228,-1.5225,-1.5129,-1.5115,-1.5103,-1.5087,-1.5231,-1.5232,-1.5324,-1.5324,-1.5325]},{"header":{"parameterUnit":"m.s-1","parameterCategory":1,"la1":30.2991,"la2":30.254,"lo1":-89.0895,"lo2":-89.0444,"dx":0.0017,"dy":0.0017,"nx":28,"ny":28,"refTime":"2023-01-13T09:00:00:Z","depth":0,"parameterNumber":3,"parameterNumberName":"V-component_of_WINDS"},"data":[0,0,0,0,0,0,0,0,0,0,0,0,0,0,0,0,0,0,0,0,0,0,0,0,0,0,0,0,0,0,0,0,0,0,0,0,0,0,0,0,0,0,0,0,0,0,0,0,0,0,0,0,0,0,0,0,0,0,-2.7335,-2.7336,0,-2.7422,-2.7423,-2.7424,-2.7401,-2.7399,-2.7397,-2.7396,-2.7483,-2.7487,-2.7491,0,0,0,0,0,0,0,0,0,0,0,0,0,-2.7145,-2.7149,-2.7334,-2.7336,-2.7337,-2.7422,-2.7423,-2.7424,-2.7401,-2.7399,-2.7397,-2.7395,-2.7482,-2.7487,-2.7491,0,0,0,0,0,0,0,0,0,0,0,0,0,-2.723,-2.715,-2.7334,-2.7336,-2.7337,-2.7421,-2.7423,-2.7424,-2.7402,-2.7399,-2.7396,-2.7394,-2.748,-2.7486,-2.7492,-2.758,0,0,-2.751,-2.7513,0,0,0,0,0,0,0,0,-2.7225,-2.7237,-2.7334,-2.7336,-2.7337,-2.7398,-2.7388,-2.7477,-2.7402,-2.7377,-2.7396,-2.7393,-2.7457,-2.7464,-2.7486,-2.7584,-2.7588,-2.7511,-2.7514,-2.7517,-2.7518,0,0,0,0,0,0,0,-2.7219,-2.7233,-2.7369,-2.7336,-2.7337,-2.7331,-2.734,-2.7405,-2.743,-2.7379,-2.7377,-2.7388,-2.7457,-2.7481,-2.7488,-2.759,-2.751,-2.7516,-2.7519,-2.7522,-2.7763,-2.7766,0,0,0,0,0,0,-2.7212,-2.7228,-2.7366,-2.7372,-2.7273,-2.7336,-2.7347,-2.7381,-2.7429,-2.7434,-2.739,-2.7387,-2.7472,-2.7481,-2.7491,-2.7597,-2.7517,-2.7522,-2.7526,-2.776,-2.7763,-2.7767,0,0,0,0,0,0,-2.7209,-2.7225,-2.7363,-2.7299,-2.7316,-2.7342,-2.7381,-2.7384,-2.7408,-2.7438,-2.7442,-2.741,-2.747,-2.7483,-2.7558,-2.76,-2.7525,-2.753,-2.7757,-2.7761,-2.7765,-2.781,0,0,0,0,0,0,-2.7203,-2.7224,-2.7258,-2.73,-2.732,-2.7429,-2.7384,-2.7388,-2.7418,-2.7414,-2.7458,-2.7463,-2.7469,-2.755,-2.7564,-2.7607,-2.7535,-2.7753,-2.7759,-2.7764,-2.7805,-2.7815,-2.7824,0,0,0,0,0,-2.7197,-2.7267,-2.726,-2.7277,-2.7364,-2.7431,-2.7443,-2.7449,-2.7422,-2.7456,-2.7475,-2.7461,-2.7593,-2.7557,-2.7574,-2.7618,-2.775,-2.7757,-2.7763,-2.78,-2.7813,-2.7824,0,0,0,0,0,0,-2.7229,-2.7273,-2.7265,-2.7352,-2.7388,-2.7427,-2.7471,-2.7463,-2.7507,-2.7502,-2.7508,-2.7518,-2.7594,-2.7614,-2.7573,-2.7706,-2.7668,-2.7678,-2.769,-2.7702,-2.7712,-2.7705,-2.754,0,0,0,0,0,-2.7246,-2.7298,-2.7334,-2.7407,-2.7425,-2.7445,-2.7475,-2.7477,-2.7514,-2.7529,-2.7554,-2.7591,-2.764,-2.7672,-2.772,-2.7807,-2.7816,-2.7846,-2.7856,-2.7864,-2.7872,-2.7919,-2.7932,-2.7788,-2.7788,-2.7788,0,0,-2.7282,-2.7313,-2.7345,-2.7414,-2.7442,-2.7495,-2.7458,-2.7516,-2.7555,-2.7538,-2.761,-2.763,-2.7671,-2.7752,-2.7789,-2.7771,-2.7914,-2.7872,-2.7878,-2.7882,-2.7927,-2.794,-2.7952,-2.7792,-2.7791,-2.7791,0,0,-2.7375,-2.7404,-2.7467,-2.7496,-2.754,-2.7552,-2.7568,-2.7608,-2.7621,-2.7693,-2.7682,-2.7728,-2.7813,-2.7842,-2.7868,-2.7971,-2.7959,-2.7986,-2.8036,-2.8082,-2.8093,-2.8103,-2.8139,-2.8152,-2.7995,-2.7995,-2.7995,0,-2.7414,-2.7494,-2.7501,-2.756,-2.7589,-2.7577,-2.7641,-2.7668,-2.7725,-2.7745,-2.7724,-2.783,-2.7857,-2.7945,-2.797,-2.7991,-2.8008,-2.7981,-2.8091,-2.8101,-2.8111,-2.8145,-2.8158,-2.7998,-2.7997,-2.7997,-2.7997,0,-2.754,-2.7595,-2.7641,-2.7696,-2.7731,-2.7792,-2.7807,-2.7842,-2.784,-2.7855,-2.7929,-2.796,-2.8013,-2.8034,-2.8034,-2.8122,-2.8109,-2.8089,-2.8051,-2.8127,-2.8159,-2.8172,-2.8002,-2.8001,-2.8,-2.7999,0,0,-2.7655,-2.7713,-2.773,-2.7754,-2.78,-2.7843,-2.7903,-2.7955,-2.7984,-2.8023,-2.8072,-2.8145,-2.8127,-2.8156,-2.8159,-2.8199,-2.8277,-2.8174,-2.8175,-2.8191,-2.8374,-2.8388,-2.8403,-2.827,-2.8272,-2.8274,-2.837,0,-2.7751,-2.7857,-2.7864,-2.796,-2.801,-2.7999,-2.8051,-2.8084,-2.8099,-2.8144,-2.816,-2.8211,-2.8184,-2.8201,-2.8241,-2.8259,-2.8313,-2.8252,-2.8314,-2.8317,-2.8304,-2.842,-2.8435,-2.8524,-2.8383,-2.8385,-2.8387,0,-2.7877,-2.792,-2.8021,-2.8059,-2.8081,-2.8127,-2.8175,-2.8218,-2.8256,-2.8264,-2.8296,-2.8293,-2.8353,-2.8313,-2.8395,-2.8354,-2.8379,-2.8392,-2.8396,-2.8401,-2.8356,-2.8428,-2.8553,-2.8566,-2.8407,-2.8405,-2.8404,0,-2.795,-2.8033,-2.8104,-2.8125,-2.8172,-2.8205,-2.8226,-2.8261,-2.8291,-2.8333,-2.8353,-2.8401,-2.8427,-2.8463,-2.8473,-2.8443,-2.8555,-2.8515,-2.8562,-2.8562,-2.8585,-2.8584,-2.8716,-2.8604,-2.8603,-2.8603,-2.8603,0,-2.8056,-2.8118,-2.8137,-2.818,-2.8248,-2.8256,-2.8323,-2.8342,-2.8373,-2.8419,-2.8412,-2.8455,-2.8465,-2.851,-2.8518,-2.8584,-2.8596,-2.8603,-2.8605,-2.8604,-2.8603,-2.862,-2.8614,-2.8607,-2.8606,-2.8605,-2.8605,0,-2.8149,-2.8164,-2.824,-2.8279,-2.829,-2.8338,-2.837,-2.8411,-2.8425,-2.8483,-2.8497,-2.8519,-2.8572,-2.8585,-2.8647,-2.8652,-2.873,-2.8726,-2.8718,-2.8717,-2.8763,-2.8758,-2.891,-2.893,-2.8805,-2.8807,-2.8808,0,-2.8215,-2.8262,-2.8305,-2.8336,-2.8358,-2.8407,-2.8439,-2.8447,-2.848,-2.8526,-2.8561,-2.8612,-2.8654,-2.8738,-2.8759,-2.8806,-2.8802,-2.8853,-2.8809,-2.8807,-2.8802,-2.8799,-2.8803,-2.886,-2.8862,-2.8863,-2.8864,0,-2.833,-2.8335,-2.8381,-2.8429,-2.8466,-2.8505,-2.8541,-2.8566,-2.858,-2.8617,-2.867,-2.8703,-2.8766,-2.8817,-2.8865,-2.8885,-2.8877,-2.8877,-2.889,-2.8889,-2.8882,-2.8886,-2.8739,-2.8874,-2.8873,-2.8872,-2.8871,-2.8871,-2.8411,-2.8452,-2.8488,-2.8539,-2.8567,-2.8601,-2.8642,-2.8661,-2.8706,-2.8758,-2.8761,-2.8819,-2.8854,-2.8917,-2.894,-2.8985,-2.897,-2.8989,-2.8994,-2.8998,-2.9002,-2.8876,-2.8994,-2.8994,-2.8993,-2.8993,-2.8993,0,-2.8525,-2.8548,-2.8594,-2.8646,-2.8685,-2.8674,-2.8714,-2.8747,-2.8798,-2.8832,-2.8873,-2.8934,-2.8984,-2.9008,-2.9057,-2.9088,-2.9085,-2.91,-2.9097,-2.9102,-2.9013,-2.8996,-2.9102,-2.9102,-2.9101,-2.9101,-2.9101,-2.9101,-2.8589,-2.8657,-2.8667,-2.8748,-2.8771,-2.8828,-2.8851,-2.8882,-2.8909,-2.8978,-2.9019,-2.9034,-2.9064,-2.9115,-2.9159,-2.9165,-2.9183,-2.92,-2.9204,-2.912,-2.9109,-2.9098,-2.9082,-2.9204,-2.9204,-2.9289,-2.929,-2.929]}]]